Location: Central Falls
(41.8900°N, 71.3929°W)
Time: 15:14:45
(UTC+00:00)

SR - Pass Details

Date: 10 December 2023
Orbit: 574 x 867 km, 66.7° (Epoch: 28 February)

Event Time Altitude Azimuth Distance (km) Brightness Sun altitude
Rises 22:45:39 0° 335° (NNW) 3,451 ? -16.4°
Reaches altitude 10° 22:48:24 10° 343° (NNW) 2,494 ? -16.9°
Maximum altitude 22:53:42 36° 50° (NE) 1,291 ? -17.8°
Enters shadow 22:55:07 31° 80° (E) 1,395 ? -18.1°
